Location: Asheville, NC
(35.6000°N, 82.5500°W)
Time: 20:55:34
(UTC-05:00)

Vanguard 2 Rocket - Pass Details

Date: 16 December 2017
Orbit: 556 x 3326 km, 32.9° (Epoch: 20 January)

Event Time Altitude Azimuth Distance (km) Brightness Sun altitude
Rises 16:43:23 0° 204° (SSW) 3,826 11.2 5.3°
Reaches altitude 10° 16:46:07 10° 191° (S) 3,185 10.5 4.9°
Maximum altitude 16:52:51 27° 136° (SE) 2,823 9.4 3.7°
Drops below altitude 10° 17:03:07 10° 86° (E) 5,007 10.1 1.9°
Sets 17:08:47 0° 77° (ENE) 6,485 10.6 0.9°
